www.pogodaiklimat.ru

Погода и климат >> Архив погоды >> Бельгия >> Elsenborn


ПОГОДА в Elsenborn

  • Прогноз погоды в Elsenborn
  • Монитор погоды в Elsenborn
  • Климат города

АРХИВ ПОГОДЫ в Elsenborn

Время (UTC), дата Ветер
(напр.,м/с)
 
Видим.   Явления Облачность Т
(С)
Тd
(С)
f
(%)
Тe
(С)
Тes
(С)
Комфортность P
(гПа)
Po
(гПа)
Тmin
(С)
Tmax
(С)
R
(мм)
R24
(мм)
S
(см)
11 11.10 Ю 2
{4}
20 км н/о +17.1 +10.1 63 +17 +17 1012.7 948.3
10 11.10
{4}
15 км 9/0
[Ac trans]
+16.1 +10.4 69 1013.1 948.4
12 11.10 Ю 2
{9}
20 км н/о +18.4 +10.3 59 +19 +19 1012.2 948.0
13 11.10
{5}
20 км н/о +18.2 +10.4 60 1012.1 947.9
14 11.10 Ю 2
{5}
20 км н/о +19.5 +10.3 55 +21 +21 комфорт 1011.8 947.9
15 11.10 Ю 3
{7}
20 км н/о +19.1 +9.3 53 +20 +20 1011.7 947.8
17 11.10
{5}
20 км н/о +16.8 +10.5 66 1012.8 948.4
16 11.10 Ю 2
{6}
20 км н/о +18.6 +9.4 55 +20 +20 1012.1 948.0
18 11.10
{7}
20 км н/о +16.2 +10.5 69 1013.8 949.1 +19.7
19 11.10
{3}
20 км н/о +15.1 +9.9 71 1014.2 949.3
20 11.10
{4}
20 км н/о +15.2 +9.8 70 1014.3 949.4
21 11.10
{4}
20 км н/о +14.2 +9.9 75 1015.0 949.8
23 11.10
{4}
20 км н/о +14.1 +9.8 75 1015.7 950.5
22 11.10
{3}
20 км н/о +14.9 +9.7 71 1014.5 949.5
00 12.10
{4}
20 км н/о +13.8 +9.9 77 1016.2 950.8
01 12.10
{3}
20 км н/о +13.1 +10.0 81 1016.7 951.1
02 12.10
{3}
20 км н/о +13.0 +10.2 83 1017.0 951.4
03 12.10
{4}
20 км н/о +12.8 +10.4 85 1017.5 951.8
05 12.10
{3}
20 км н/о +12.3 +10.2 87 1018.8 953.0
04 12.10
{3}
20 км н/о +12.7 +10.4 86 1018.2 952.4
06 12.10
{4}
20 км н/о +12.6 +10.6 88 1019.3 953.5 +12.0
07 12.10
{4}
20 км н/о +13.5 +11.1 85 1020.2 954.5
08 12.10
{4}
20 км н/о +14.6 +11.3 81 1020.3 955.0
09 12.10
{4}
20 км н/о +15.9 +11.5 75 1020.7 955.6
11 12.10 Ю 3
{7}
20 км н/о +19.2 +12.2 64 +21 +21 комфорт 1019.5 955.1
10 12.10 Ю 2
{6}
20 км н/о +17.9 +11.7 67 +18 +18 1020.1 955.3
12 12.10 Ю 2
{7}
20 км н/о +20.7 +12.1 58 +24 +24 комфорт 1019.3 955.3
13 12.10 Ю 2
{7}
20 км н/о +20.5 +11.7 57 +23 +23 комфорт 1019.5 955.3
14 12.10 Ю 2
{6}
20 км н/о +20.7 +12.3 59 +24 +24 комфорт 1019.7 955.6
15 12.10 Ю 2
{7}
20 км н/о +20.5 +12.7 61 +23 +23 комфорт 1019.7 955.7
17 12.10
{4}
20 км н/о +18.4 +12.3 68 1020.6 955.9
16 12.10
{5}
20 км н/о +19.6 +12.7 64 1020.2 955.8
18 12.10
{7}
20 км н/о +17.7 +12.1 70 1021.2 956.4 +21.2
19 12.10
{4}
20 км н/о +17.8 +11.6 67 1021.2 956.5
20 12.10
{4}
20 км н/о +17.3 +11.3 68 1021.7 956.7
21 12.10
{4}
20 км н/о +17.2 +11.1 67 1021.8 956.9
23 12.10
{2}
20 км н/о +15.5 +10.9 74 1022.0 956.6
22 12.10
{3}
20 км н/о +16.0 +11.0 72 1022.2 956.9
00 13.10
{4}
20 км н/о +16.2 +10.9 71 1021.6 956.4
01 13.10
{4}
20 км н/о +15.6 +10.9 74 1021.8 956.5
02 13.10
{3}
20 км н/о +15.8 +11.1 74 1021.5 956.2
03 13.10
{4}
20 км н/о +12.0 +10.2 89 1022.7 956.6
05 13.10
{1}
16 км н/о +10.3 +9.6 95 1022.7 956.2
04 13.10
{1}
20 км н/о +11.2 +10.0 92 1023.0 956.6
06 13.10
{4}
12 км н/о +9.3 +8.9 97 1022.7 956.0 +9.1
07 13.10
{1}
16 км н/о +11.1 +10.4 95 1022.2 955.9
08 13.10
{4}
20 км н/о +17.0 +11.9 72 1020.8 955.9
09 13.10
{4}
20 км н/о +18.1 +11.8 67 1020.3 955.7
11 13.10 Ю 2
{6}
20 км н/о +21.1 +10.3 50 +23 +23 комфорт 1019.0 955.0
10 13.10 Ю 2
{6}
20 км н/о +19.8 +11.4 58 +22 +22 комфорт 1019.7 955.4
12 13.10 Ю 2
{7}
20 км н/о +21.8 +9.7 46 +23 +23 комфорт 1017.8 954.1
13 13.10 Ю 2
{6}
20 км н/о +22.2 +10.2 46 +24 +24 комфорт 1017.2 953.5
14 13.10 Ю 2
{5}
20 км н/о +22.6 +10.0 45 +24 +24 комфорт 1016.6 953.0
15 13.10 Ю 2
{6}
20 км н/о +21.8 +9.0 44 +23 +23 комфорт 1016.1 952.4
17 13.10
{4}
20 км н/о +18.7 +9.2 54 1015.8 951.5
16 13.10
{6}
20 км н/о +20.7 +9.2 48 1015.5 951.6
18 13.10
{6}
20 км н/о +17.6 +9.3 58 1015.7 951.3 +22.7
19 13.10
{3}
20 км н/о +17.5 +9.5 59 1015.5 950.9
20 13.10
{4}
20 км н/о +17.0 +9.4 61 1015.2 950.7
21 13.10
{4}
20 км н/о +16.6 +8.9 60 1015.2 950.5
23 13.10
{3}
20 км н/о +16.1 +9.5 65 1014.7 949.8
22 13.10
{3}
20 км н/о +16.5 +9.3 62 1015.1 950.3
00 14.10
{4}
20 км н/о +15.3 +9.3 67 1014.2 949.3
01 14.10
{3}
20 км н/о +14.6 +9.4 71 1013.7 948.7
02 14.10
{3}
20 км н/о +14.9 +9.5 70 1013.1 948.2
03 14.10
{3}
20 км н/о +14.3 +9.6 73 1012.7 947.6
05 14.10
{3}
20 км н/о +13.6 +9.5 76 1011.8 946.7
04 14.10
{4}
20 км н/о +14.0 +9.5 74 1012.3 947.3
06 14.10
{4}
20 км н/о +12.8 +9.3 79 1011.8 946.5 +12.8
07 14.10
{5}
20 км н/о +14.1 +9.2 72 1011.7 946.7
08 14.10 Ю 2
{6}
19 км н/о +15.5 +9.3 67 +15 +15 1011.3 946.7
09 14.10 Ю 2
{6}
20 км н/о +17.1 +8.9 58 +17 +17 1010.7 946.5
11 14.10 Ю 3
{7}
20 км н/о +19.4 +9.9 54 +21 +21 комфорт 1009.8 946.1
10 14.10 Ю 3
{7}
20 км н/о +18.0 +9.8 59 +18 +18 1010.3 946.3
12 14.10 Ю 3
{9}
19 км н/о +20.7 +9.5 49 +23 +23 комфорт 1009.1 945.6
13 14.10 Ю 4
{8}
20 км н/о +20.7 +9.0 47 +22 +22 комфорт 1008.7 945.3
14 14.10 Ю 2
{9}
20 км н/о +21.1 +8.5 44 +22 +22 комфорт 1008.2 944.9
15 14.10 Ю 2
{9}
20 км н/о +20.7 +8.5 45 +23 +23 комфорт 1008.2 944.7
17 14.10
{3}
20 км н/о +17.7 +8.7 56 1009.2 945.2
16 14.10
{6}
20 км н/о +19.6 +8.5 49 1008.5 944.8
18 14.10
{9}
20 км н/о +16.3 +7.5 56 1010.0 945.5 +22.2
19 14.10
{3}
20 км н/о +16.1 +5.9 51 1010.2 945.6
20 14.10
{4}
20 км н/о +16.2 +4.1 44 1010.5 945.9
21 14.10
{4}
20 км н/о +16.0 +4.0 45 1010.7 946.1
23 14.10
{3}
20 км н/о +14.6 +4.3 50 1011.2 946.3
22 14.10
{4}
20 км н/о +15.3 +4.0 47 1011.1 946.3
00 15.10
{4}
20 км н/о +14.1 +4.6 53 1011.7 946.5
01 15.10
{3}
20 км н/о +14.6 +4.9 52 1011.6 946.6
02 15.10
{3}
20 км н/о +14.3 +5.3 55 1011.3 946.4
03 15.10
{4}
20 км н/о +13.9 +5.3 56 1011.2 946.1
05 15.10
{5}
20 км н/о +13.8 +5.9 59 1012.0 946.8
04 15.10
{5}
20 км н/о +14.3 +5.7 56 1011.3 946.4
06 15.10
{5}
20 км н/о +13.1 +6.0 62 1012.8 947.5 +12.8
07 15.10
{3}
20 км н/о +13.6 +6.1 60 1013.3 948.1
08 15.10
{1}
20 км н/о +14.1 +7.4 64 1013.7 948.5
09 15.10
{3}
20 км н/о +17.8 +6.7 48 1013.2 948.8
11 15.10
{5}
20 км н/о +20.3 +6.4 40 1012.8 949.1
10 15.10
{5}
20 км н/о +18.7 +6.1 44 1013.2 949.1
12 15.10
{5}
20 км н/о +21.2 +7.1 40 1012.6 948.9
13 15.10 З 2
{7}
20 км н/о +21.1 +5.7 37 +22 +22 комфорт 1012.7 948.9
14 15.10
{5}
20 км н/о +21.7 +6.1 36 1012.6 949.0
15 15.10
{7}
20 км н/о +20.8 +6.3 39 1013.0 949.2
17 15.10 штиль 0
{1}
20 км н/о +14.3 +7.5 64 +14 +14 1015.6 950.3
16 15.10
{2}
20 км н/о +19.6 +6.4 42 1013.7 949.6
18 15.10
{7}
20 км н/о +11.3 +7.7 78 1016.7 950.8 +21.8
19 15.10 штиль 0
{1}
20 км н/о +8.6 +6.8 88 +8 +8 1017.7 950.9
20 15.10 штиль 0 17 км н/о +7.6 +6.4 92 +7 +7 1018.2 951.2
21 15.10
{1}
15 км н/о +6.9 +5.7 92 1018.7 951.5
23 15.10 штиль 0 13 км н/о +5.3 +4.6 95 +4 +4 1019.5 951.8
22 15.10 штиль 0 12 км н/о +5.9 +5.1 95 +5 +5 1019.1 951.6
00 16.10
{1}
11 км н/о +5.0 +4.3 95 1019.8 952.1
01 16.10 штиль 0 10 км н/о +4.5 +3.9 96 +3 +3 1020.2 952.4
02 16.10 12 км н/о +4.3 +3.8 97 1020.6 952.6
03 16.10 штиль 0 10 км н/о +3.8 +3.3 97 +3 +3 1020.7 952.6
05 16.10 9000 м н/о +3.9 +3.5 97 1021.1 953.1
04 16.10 штиль 0 10 км н/о +3.7 +3.0 95 +3 +3 1021.0 952.9
06 16.10 штиль 0 11 км н/о +3.4 +3.0 97 +2 +2 1021.6 953.4 +3.2
07 16.10 штиль 0 12 км н/о +4.9 +4.4 97 +4 +4 1021.5 953.7
08 16.10 20 км н/о +13.3 +9.7 79 1019.7 954.1
09 16.10
{1}
20 км н/о +17.6 +10.3 62 1018.8 954.1
11 16.10
{3}
20 км н/о +21.2 +5.2 35 1018.2 954.1
10 16.10
{3}
4300 м н/о +21.2 +6.6 39 1018.2 954.2
12 16.10
{4}
20 км н/о +21.9 +5.6 35 1017.7 953.9
13 16.10
{4}
20 км н/о +21.0 +5.6 37 1018.0 953.9
14 16.10
{3}
20 км н/о +21.5 +5.4 35 1017.8 953.9
15 16.10
{4}
20 км н/о +21.0 +5.7 37 1017.7 953.8
17 16.10
{1}
20 км н/о +14.5 +6.8 60 1019.6 954.1
16 16.10
{2}
20 км н/о +19.3 +6.3 43 1018.2 953.8
18 16.10
{4}
8000 м н/о +12.0 +6.9 71 1020.6 954.5 +22.4
19 16.10
{1}
3900 м дымка н/о +9.8 +6.6 80 1021.6 954.9
20 16.10 3100 м дымка н/о +8.3 +6.2 87 1021.8 954.9
21 16.10
{1}
1800 м дымка н/о +7.6 +6.0 90 1022.1 954.9
23 16.10 2200 м дымка н/о +6.6 +6.0 96 1021.7 954.4
22 16.10 1600 м дымка н/о +6.9 +5.8 93 1022.0 954.6
00 17.10 штиль 0
{1}
2100 м дымка н/о +5.6 +4.9 95 +4 +4 1022.0 954.3
01 17.10 4100 м дымка н/о +5.3 +4.5 95 1021.8 954.1
02 17.10 нст 1
{1}
4800 м дымка н/о +5.5 +4.9 96 +4 +4 1021.6 953.9
03 17.10
{1}
3100 м дымка н/о +5.0 +4.4 96 1021.5 953.6
05 17.10 штиль 0 7000 м н/о +4.8 +4.2 96 +4 +4 1021.7 953.9
04 17.10 штиль 0 6000 м н/о +5.0 +4.4 96 +4 +4 1021.6 953.8
06 17.10
{1}
5000 м дымка н/о +4.5 +3.9 96 1021.7 953.8 +3.5
07 17.10
{2}
6000 м н/о +5.0 +4.7 98 1021.8 954.0
08 17.10
{1}
9000 м н/о +8.6 +7.6 93 1021.1 954.1
09 17.10
{2}
12 км н/о +12.7 +10.2 85 1020.1 954.2
11 17.10
{2}
19 км н/о +19.7 +8.2 47 1018.3 954.1
10 17.10
{2}
20 км н/о +17.9 +10.4 61 1018.8 954.2
12 17.10
{3}
19 км н/о +20.5 +8.2 45 1017.7 953.6
13 17.10
{4}
20 км н/о +20.9 +8.1 44 1017.2 953.3
14 17.10
{4}
19 км н/о +20.3 +8.1 45 1017.2 953.2
15 17.10
{4}
17 км н/о +18.8 +9.9 56 1017.6 953.2
17 17.10
{2}
12 км н/о +14.4 +10.4 77 1019.3 953.9
16 17.10
{3}
19 км н/о +17.0 +10.4 65 1018.3 953.5
18 17.10
{4}
7000 м н/о +12.7 +10.0 84 1020.2 954.3 +21.1
19 17.10
{2}
4400 м дымка н/о +11.6 +10.0 90 1021.1 954.9
20 17.10
{1}
2800 м дымка н/о +11.6 +10.3 92 1021.3 955.2
21 17.10
{2}
1800 м дымка н/о +11.5 +10.8 95 1021.6 955.3
23 17.10
{1}
1000 м дымка н/о +10.3 +9.9 97 1022.1 955.5
22 17.10
{1}
1100 м дымка н/о +11.0 +10.5 97 1021.8 955.5
00 18.10
{2}
500 м туман н/о +9.8 +9.5 98 1022.1 955.4
01 18.10
{1}
<100 м туман н/о +8.5 +8.5 100 1022.2 955.2
02 18.10 штиль 0
{1}
<100 м слаб. дождь н/о +7.7 +7.5 99 +7 +7 1022.5 955.3
03 18.10
{2}
<100 м туман н/о +10.6 +10.6 100 1022.0 955.5
05 18.10 СВ 2
{4}
<100 м туман н/о +11.3 +11.3 100 +10 +10 1022.1 955.8
04 18.10 СВ 2
{3}
100 м туман н/о +11.3 +11.3 100 +10 +10 1022.0 955.6
06 18.10 СВ 2
{5}
100 м туман н/о +11.1 +11.1 100 +10 +10 1022.6 956.2 +7.4
07 18.10 СВ 3
{4}
100 м туман н/о +11.1 +11.1 100 +9 +9 1022.8 956.5
08 18.10 В 2
{4}
400 м туман н/о +11.3 +11.3 100 +10 +10 1023.1 956.7
09 18.10 СВ 2
{6}
1800 м дымка н/о +11.6 +11.1 97 +10 +10 1023.2 956.9
10 18.10 СВ 2
{6}
2700 м дымка н/о +12.1 +11.0 93 +11 +11 1023.3 957.1

 

Местоположение метеостанции Elsenborn (Бельгия): широта 50.47 долгота 6.18 высота над уровнем моря 570 м.

В архиве по умолчанию представлена погода в Elsenborn за последнюю неделю. Архивные данные за месяц целиком и за предыдущие месяцы, начиная с января 2011 года, Вы можете получить, выбрав интересующий диапазон дат из раскрывающегося списка и нажав кнопку "Ввод!".


*Определитесь, кто Вы:
робот инопланетянин человек

Внимание! Время в таблицах - всемирное. Для получения местного времени необходимо прибавить поправку, которая в Elsenborn равна 1 ч.

Смотрите также архив погоды в соседних городах и на ближайших метеорологических станциях:

Погода в Mont-Rigi (Бельгия) (10 км)
Погода в Spa (Бельгия) (18 км)
Погода в Aachen-Orsbach (Германия) (37 км)
Погода в Nuerburg-Barweiler (Германия) (50 км)
Погода в Noervenich (Германия) (53 км)
Погода в Bierset (Бельгия) (55 км)
Погода в Geilenkirchen (Германия) (56 км)
Погода в Maastricht (Нидерланды) (57 км)
Погода в Buechel (Германия) (71 км)
Погода в Diepenbeek (Бельгия) (72 км)

Пояснения к столбцам:

Ветер - указаны скорость ветра в м/с - средняя за 10 мин, порывы в срок и между сроками (в фигурных скобках) и направление, откуда дует ветер: С - северный, СВ - северо-восточный, В - восточный, ЮВ - юго-восточный, Ю - южный, ЮЗ - юго-западный, З - западный, СЗ - северо-западный.
Видимость - горизонтальная дальность видимости в метрах или километрах. При видимости от 1 до 10 км при отсутствии осадков обычно наблюдается дымка, при ухудшении видимости до 1 км и менее - туман. В сухую погоду видимость может ухудшаться дымом, пылью или мглою.
Явления - указаны атмосферные явления, наблюдавшиеся в срок или в последний час перед сроком; фигурными скобками обозначены явления, наблюдавшиеся между сроками (за 1-3 часа до срока); квадратными скобками обозначены град или гололедные отложения с указанием их диаметра в мм.
Облачность - указаны через наклонную черту общая и нижняя облачность в баллах и высота нижней границы облаков в метрах; квадратными скобками обозначены формы облаков: Ci - перистые, Cs - перисто-слоистые, Cc - перисто-кучевые, Ac - высококучевые, As - высокослоистые, Sc - слоисто-кучевые, Ns - слоисто-дождевые, Cu - кучевые, Cb - кучево-дождевые. Подробнее классификацию облаков см. в Атласе облаков (PDF).
T - Температура воздуха - температура, измеренная на высоте 2 м над землей.
Td - Температура точки росы - температура, при понижении до которой содержащийся в воздухе водяной пар достигнет насыщения.
f - Относительная влажность воздуха - влажноcть воздуха, измеренная на высоте 2 м над землей.
Te - Эффективная температура - температура, которую ощущает одетый по сезону человек в тени. Характеристика душности погоды. При расчете учитывается влияние влажности воздуха и скорости ветра на теплоощущения человека.
Tes - Эффективная температура на солнце - температура, которую ощущает человек, с поправкой на солнечный нагрев. Характеристика знойности погоды. Зависит от высоты солнца над горизонтом, облачности и скорости ветра. Ночью, в пасмурную погоду, а также при ветре 12 м/с и более поправка равна нулю.
P - Атмосферное давление - приведенное к уровню моря атмосферное давление.
Po - Атмосферное давление - измеренное на уровне метеостанции атмосферное давление.
Tmin - Минимальная температура - минимум температуры воздуха на высоте 2 м над землей.
Tmax - Максимальная температура - максимум температуры воздуха на высоте 2 м над землей.
R - Количество осадков - Количество выпавших осадков за период времени, мм. При наведении курсора мыши на число - период времени, за который выпало указанное количество осадков.
R24 - Количество осадков - Количество выпавших осадков за 24 часа, мм.
S - Снежный покров - Высота снежного покрова, см. При наведении курсора мыши на число - состояние снежного покрова и степень покрытия местности в баллах.